TimeEST,TemperatureF,Dew PointF,Humidity,Sea Level PressureIn,VisibilityMPH,Wind Direction,Wind SpeedMPH,Gust SpeedMPH,PrecipitationIn,Events,Conditions,WindDirDegrees,DateUTC
12:51 AM,19.9,17.1,89,30.27,9.0,Calm,Calm,-,N/A,,Clear,0,2012-12-14 05:51:00
1:51 AM,21.2,17.6,86,30.24,9.0,Calm,Calm,-,N/A,,Clear,0,2012-12-14 06:51:00
2:51 AM,21.0,19.0,92,30.25,7.0,Calm,Calm,-,N/A,,Clear,0,2012-12-14 07:51:00
3:51 AM,19.9,18.0,92,30.23,7.0,Calm,Calm,-,N/A,,Clear,0,2012-12-14 08:51:00
4:51 AM,18.0,15.1,88,30.21,7.0,Calm,Calm,-,N/A,,Clear,0,2012-12-14 09:51:00
5:51 AM,19.0,17.1,92,30.21,6.0,Calm,Calm,-,N/A,,Clear,0,2012-12-14 10:51:00
6:51 AM,16.0,14.0,92,30.20,6.0,Calm,Calm,-,N/A,,Clear,0,2012-12-14 11:51:00
7:51 AM,18.0,15.1,88,30.19,6.0,Calm,Calm,-,N/A,,Clear,0,2012-12-14 12:51:00
8:51 AM,19.9,18.0,92,30.18,6.0,Calm,Calm,-,N/A,,Clear,0,2012-12-14 13:51:00
9:51 AM,28.0,25.0,88,30.16,6.0,Calm,Calm,-,N/A,,Clear,0,2012-12-14 14:51:00
10:51 AM,36.0,26.1,67,30.12,10.0,South,4.6,-,N/A,,Clear,180,2012-12-14 15:51:00
11:51 AM,42.1,24.1,49,30.08,10.0,SW,6.9,-,N/A,,Clear,230,2012-12-14 16:51:00
12:51 PM,46.0,19.0,34,30.05,10.0,WSW,8.1,18.4,N/A,,Clear,240,2012-12-14 17:51:00
1:51 PM,46.0,19.0,34,30.05,10.0,WNW,17.3,24.2,N/A,,Clear,300,2012-12-14 18:51:00
2:51 PM,44.1,21.9,42,30.07,10.0,WNW,13.8,23.0,N/A,,Clear,290,2012-12-14 19:51:00
3:51 PM,41.0,23.0,49,30.09,10.0,West,8.1,-,N/A,,Clear,280,2012-12-14 20:51:00
4:51 PM,39.0,24.1,55,30.10,10.0,WSW,4.6,-,N/A,,Scattered Clouds,250,2012-12-14 21:51:00
5:51 PM,39.0,24.1,55,30.11,10.0,West,4.6,-,N/A,,Overcast,280,2012-12-14 22:51:00
6:51 PM,39.0,25.0,57,30.13,10.0,WNW,4.6,-,N/A,,Overcast,290,2012-12-14 23:51:00
7:51 PM,34.0,24.1,67,30.14,10.0,Calm,Calm,-,N/A,,Overcast,0,2012-12-15 00:51:00
8:51 PM,35.1,26.1,70,30.15,10.0,South,3.5,-,N/A,,Overcast,170,2012-12-15 01:51:00
9:51 PM,36.0,26.1,67,30.15,10.0,SW,3.5,-,N/A,,Overcast,220,2012-12-15 02:51:00
10:51 PM,37.0,26.1,65,30.16,10.0,Calm,Calm,-,N/A,,Overcast,0,2012-12-15 03:51:00
11:51 PM,37.9,26.1,62,30.16,10.0,NW,4.6,-,N/A,,Overcast,320,2012-12-15 04:51:00